Location: Vinland
(47.7731°N, 122.6974°W)
Time: 19:49:15
(UTC+00:00)

Vanguard 2 - Pass Details

Date: 18 April 2024
Orbit: 553 x 2914 km, 32.9° (Epoch: 22 May)

Event Time Altitude Azimuth Distance (km) Brightness Sun altitude
Exits shadow 10:54:01 25° 211° (SSW) 4,447 10.8 -20.8°
Maximum altitude 11:03:20 42° 163° (SSE) 3,744 10.7 -19.7°
Drops below altitude 10° 11:18:19 10° 101° (E) 5,361 12.3 -17.9°
Sets 11:22:24 0° 95° (E) 6,147 12.8 -17.3°
